Location: Ward Pound Ridge Reservation
(41.2500°N, 73.6000°W)
Time: 16:50:14
(UTC-04:00)

ISS - Pass Details

Date: 09 October 2017
Orbit: 400 x 408 km, 51.6° (Epoch: 24 October)

Event Time Altitude Azimuth Distance (km) Brightness Sun altitude
Rises 18:57:52 0° 308° (NW) 2,326 0.9 -7.4°
Reaches altitude 10° 19:00:32 10° 331° (NNW) 1,467 -0.6 -7.9°
Maximum altitude 19:02:40 16° 12° (NNE) 1,157 -1.7 -8.3°
Drops below altitude 10° 19:04:49 10° 53° (NE) 1,468 -1.5 -8.7°
Enters shadow 19:05:08 - 57° (ENE) 1,551 -1.4 -8.8°
